Snowfall_Accumulation
0.0 0.0 0.0 0.0 0.0 0.0 0.0 0.0 0.0 0.0 0.0 0.0 0.0 0.0 0.0 0.0 0.0 0.0 0.0 0.0 0.0 0.0 0.0 0.0 0.0 0.0 0.0 0.0 0.0 0.0 0.0 0.1 0.0 0.0 0.0 0.0 0.0 0.0 0.0 0.0 0.0 0.0 0.0 0.0 0.0
0.0 0.0 0.0 0.0 0.0 0.0 0.0 0.0 0.0 0.0 0.0 0.0 0.0 0.0 0.0 0.0 0.0 0.0 0.0 0.0 0.0 0.0 0.0 0.0 0.0 0.0 0.0 0.0 0.0 0.0 0.1 0.0 0.0 0.0 0.0 0.0 0.0 0.0 0.0 0.0 0.0 0.0 0.0 0.0 0.0
0.0 0.0 0.0 0.0 0.0 0.0 0.0 0.0 0.0 0.0 0.0 0.0 0.0 0.0 0.0 0.0 0.0 0.0 0.0 0.0 0.0 0.0 0.0 0.0 0.0 0.0 0.0 0.0 0.0 0.0 0.0 0.0 0.0 0.0 0.0 0.0 0.0 0.0 0.0 0.0 0.0 0.0 0.0 0.0 0.0
0.0 0.0 0.0 0.0 0.0 0.0 0.0 0.0 0.0 0.0 0.0 0.0 0.0 0.0 0.0 0.0 0.1 0.0 0.0 0.0 0.0 0.0 0.0 0.0 0.0 0.0 0.0 0.0 0.0 0.0 0.0 0.0 0.0 0.0 0.0 0.0 0.0 0.0 0.0 0.0 0.0 0.0 0.0 0.0 0.0
0.0 0.0 0.0 0.0 0.0 0.0 0.0 0.0 0.0 0.0 0.0 0.0 0.0 0.0 0.0 0.0 0.0 0.0 0.0 0.0 0.0 0.0 0.0 0.0 0.0 0.0 0.0 0.0 0.0 0.0 0.0 0.0 0.0 0.0 0.0 0.0 0.0 0.0 0.0 0.0 0.0 0.0 0.0 0.0 0.0
0.0 0.0 0.0 0.0 0.0 0.0 0.0 0.0 0.0 0.0 0.0 0.0 0.0 0.0 0.0 0.0 0.0 0.0 0.0 0.0 0.0 0.0 0.0 0.0 0.0 0.0 0.0 0.0 0.0 0.0 0.0 0.0 0.0 0.0 0.0 0.0 0.0 0.0 0.0 0.0 0.0 0.0 0.0 0.0 0.0
0.0 0.0 0.0 0.0 0.0 0.0 0.0 0.0 0.0 0.0 0.0 0.0 0.0 0.0 0.0 0.0 0.0 0.0 0.0 0.0 0.0 0.0 0.0 0.0 0.0 0.0 0.0 0.0 0.0 0.0 0.2 0.0 0.0 0.0 0.0 0.0 0.0 0.0 0.0 0.0 0.0 0.0 0.0 0.0 0.0
0.0 0.0 0.0 0.0 0.0 0.0 0.0 0.0 0.0 0.0 0.0 0.0 0.0 0.0 0.0 0.0 0.0 0.0 0.0 0.0 0.0 0.0 0.0 0.0 0.0 0.0 0.0 0.0 0.0 0.2 0.0 0.1 0.0 0.0 0.0 0.0 1.7 0.3 0.2 0.0 0.0 0.0 0.0 0.0 0.0
0.0 0.0 0.0 0.0 0.0 0.0 0.0 0.0 0.0 0.0 0.0 0.0 0.0 0.0 0.0 0.0 0.0 0.0 0.0 0.0 0.0 0.0 0.0 0.0 0.0 0.0 0.0 2.9 3.0 0.6 2.2 0.1 0.0 0.0 0.0 0.0 0.0 0.0 0.0 0.2 0.1 0.0 0.0 0.0 0.0
0.0 0.0 0.0 0.0 0.0 0.0 0.0 0.0 0.0 0.0 0.0 0.0 0.0 0.0 0.0 0.0 0.0 0.0 0.0 0.0 0.0 0.0 0.0 0.0 0.0 0.1 0.1 8.3 17.0 4.6 4.6 0.5 0.2 0.0 0.0 0.0 1.3 0.2 0.0 0.1 0.1 0.1 0.0 0.0 0.0
0.0 0.0 0.0 0.0 0.0 0.0 0.0 0.0 0.0 0.0 0.0 0.0 0.0 0.0 0.0 0.0 0.0 0.0 0.0 0.0 0.0 0.0 2.3 0.9 2.4 3.7 1.6 1.0 3.9 4.3 5.2 3.0 0.0 0.0 0.2 0.0 0.8 0.8 0.1 0.2 0.2 0.4 0.0 0.0 0.0
0.0 0.0 0.0 0.0 0.0 0.0 0.0 0.0 0.0 0.0 0.1 0.0 0.0 0.0 0.0 0.0 0.0 0.0 0.0 0.0 0.0 2.9 2.0 2.2 5.4 0.4 0.0 0.0 2.5 4.4 3.7 1.2 0.0 0.0 0.4 0.5 2.4 1.6 0.7 3.2 3.0 2.4 0.0 0.3 0.0
0.0 0.0 0.0 0.0 0.0 0.0 0.0 0.0 0.0 0.0 0.4 0.0 0.0 0.0 0.0 0.0 0.0 0.0 0.0 0.0 0.0 2.0 2.6 3.6 0.1 0.0 0.3 0.7 4.6 4.0 5.4 1.8 0.9 0.1 0.0 0.0 1.6 1.4 2.0 2.9 2.7 2.0 0.5 0.6 0.6
0.0 0.0 0.0 0.0 0.0 0.0 0.0 0.0 0.0 0.0 16.1 1.6 0.2 0.0 0.0 0.0 0.0 0.0 0.0 0.0 0.0 0.2 0.2 1.1 0.0 0.3 1.2 3.8 2.6 5.1 0.5 1.3 2.3 10.3 11.9 3.2 10.6 1.0 1.9 3.0 3.2 2.7 2.8 2.1 1.3
0.0 0.0 0.0 0.0 0.0 0.0 0.0 0.0 0.0 0.0 31.7 2.0 0.5 0.0 0.0 0.0 0.3 0.0 0.0 0.0 1.4 0.2 0.6 3.6 0.0 0.2 6.6 2.6 3.2 5.2 1.9 1.6 3.2 11.4 9.6 2.6 15.0 5.6 1.3 2.7 4.3 5.4 3.4 3.4 2.2
0.0 0.0 0.0 0.0 0.0 0.0 0.0 0.0 0.0 23.7 33.9 7.8 0.6 2.7 1.2 1.3 0.0 0.0 0.2 0.2 0.2 0.7 0.4 0.3 0.3 1.3 3.0 0.3 2.7 0.4 1.2 1.3 5.7 15.5 30.9 1.6 8.7 13.8 4.5 7.8 4.8 5.0 4.3 4.0 3.4
0.0 0.0 0.0 0.0 0.0 0.0 0.0 0.0 24.9 27.4 4.6 5.5 4.4 4.9 6.6 4.4 1.8 0.3 2.2 5.5 10.3 21.0 18.2 3.9 6.1 1.2 0.9 4.9 1.0 8.9 10.6 40.9 58.7 49.4 20.1 5.2 11.5 16.0 9.7 6.0 6.0 6.8 5.7 4.4 3.9
0.0 0.0 0.0 0.0 0.0 0.0 0.0 7.3 20.8 5.9 7.7 3.0 2.2 2.2 8.5 1.7 3.4 1.2 3.9 11.1 4.1 5.4 16.6 19.7 24.3 11.7 6.0 7.2 12.3 13.3 18.9 24.1 24.6 18.0 6.5 5.3 23.4 15.0 7.5 4.3 3.5 4.5 6.0 4.1 4.2
0.0 0.0 0.0 0.0 0.0 0.0 0.0 20.6 9.0 8.4 4.7 6.8 2.6 9.6 4.6 1.8 2.4 5.1 7.5 7.9 3.8 2.8 18.2 11.7 15.3 3.8 4.0 4.0 4.0 9.0 25.2 11.4 10.0 5.5 9.2 19.4 22.8 6.2 3.5 3.5 3.4 4.2 3.5 4.7 4.4
0.0 0.0 0.0 0.0 0.0 0.0 1.7 9.4 5.5 1.9 4.2 3.0 7.9 0.8 4.3 2.8 3.9 5.5 6.0 2.8 1.6 0.9 1.5 8.0 15.1 4.7 2.1 3.2 4.8 9.5 11.3 23.4 29.1 22.8 29.5 25.3 17.9 22.7 12.1 11.0 5.2 5.0 5.3 5.6 4.2
0.0 0.0 0.0 0.0 0.0 0.0 15.6 6.0 2.9 0.0 0.0 0.0 0.1 0.7 0.3 1.8 1.5 3.6 7.0 2.4 0.0 0.0 0.0 2.1 13.3 8.9 3.6 14.0 17.3 13.7 21.0 22.1 20.0 15.8 14.4 22.4 32.4 19.3 17.1 12.1 9.8 9.7 6.1 5.1 5.9
0.0 5.2 0.0 0.0 0.1 6.4 5.3 1.2 0.0 0.0 0.0 0.0 0.0 0.5 1.1 0.6 1.1 4.0 5.7 1.1 0.0 0.0 0.3 0.6 9.2 17.2 14.4 8.2 6.5 10.1 14.9 16.0 33.4 27.0 17.5 18.6 23.3 10.6 6.7 7.1 9.7 7.9 5.5 5.6 5.5
0.0 0.5 0.0 0.0 9.1 4.7 0.0 0.8 1.1 0.0 0.0 0.1 0.2 0.1 0.1 1.3 2.2 0.4 1.8 0.0 0.0 0.0 1.7 0.2 5.7 15.5 15.5 8.9 2.2 9.7 10.7 12.9 15.1 21.3 33.1 29.3 26.4 8.5 6.0 5.6 6.1 8.4 6.0 6.0 5.1
0.0 7.6 0.0 0.0 0.0 1.6 3.1 3.5 0.8 0.0 0.0 0.1 0.3 0.0 0.7 0.2 0.1 1.4 4.9 0.0 0.0 0.0 0.1 0.1 3.3 9.5 13.0 10.2 6.0 10.6 5.4 9.7 19.9 30.0 23.7 27.1 16.9 8.7 6.6 7.5 7.8 6.2 5.1 5.7 5.6
0.0 3.6 0.1 3.3 1.3 0.0 0.7 1.0 0.7 1.0 0.0 0.0 0.0 0.7 4.9 3.5 0.5 0.2 1.9 1.1 0.0 0.0 0.0 0.6 10.7 3.7 3.9 1.4 1.2 3.3 5.0 6.8 17.4 17.0 18.0 16.7 11.4 11.0 8.7 8.0 9.2 4.4 3.9 3.4 3.9
1.3 2.1 1.1 0.1 0.0 0.3 0.9 0.7 0.7 0.0 0.6 0.5 0.8 0.3 1.5 4.4 5.5 3.9 2.5 2.0 2.3 0.0 0.1 0.3 6.8 4.1 4.4 0.0 0.7 2.8 0.7 2.2 4.1 9.2 10.2 7.2 9.3 7.3 5.4 4.5 5.3 3.8 2.9 2.9 2.9
0.0 0.1 3.9 0.5 0.7 2.2 2.1 0.6 0.4 0.5 0.1 0.2 0.7 1.7 0.9 1.2 0.8 0.5 0.2 0.4 0.8 0.2 0.0 0.2 3.8 5.3 6.8 0.8 0.3 3.3 2.8 1.5 4.5 5.3 6.2 9.0 8.0 4.1 4.3 4.6 4.9 5.4 5.2 3.5 2.8